Osage River (Missouri), Tuscumbia (06926080)

StateMissouriLatestUnknown (37500 cfs)
RiverOsage RiverRatingObservedEstimated
Updated2020-04-04 22:00 (57 minutes ago)Flood - The river is flooding. Obstacles can be treacherous or deadly. The river should be avoided at this stage for casual trips and definitely for the inexperienced. Trips should be attempted only with protective gear and equipment.Flood(none)(none)
Discharge37500 cfs (median: 7680 cfs)High - The river is high and potentially dangerous, especially for the young and / or inexperienced. Normal stream obstacles are sometimes difficult to navigate. Extended distances can be attempted, but canoe travel may not be advisable.High(none)(none)
Height16.47 feetGood - Conditions are ideal for a canoe or kayak. Boats typically will drag on fewer than one-quarter of riffles, if at all, and portages are unnecessary or rare. Normal float lengths can be attempted without a problem.Good(none)(none)
TrendFalling (steady over 24 hours)Low - River is low but can still be floated. Some riffles are okay but most come with significant dragging and might need a portage. Float lengths should be reduced to accommodate low flow, dragging, and portages.Low(none)(none)
USGSExternal icon USGS Site (External icon Google Maps)Poor - River is too low to float comfortably. Most or all riffles will drag or must be portaged and some obstacles (such as slick shelf rock) cause undue problems. Avoid the river at this stage for casual paddling trips.Poor(none)(none)

Trending Data

Plot Image

Trips for Osage River (Missouri), Tuscumbia (06926080)

DateStartEndDistanceConditionDischargeHeightFishingDetails

A total of 0 rows are displayed.

Condition Descriptions

Fishing Conditions

Fish Species

Notes

Classic Trip List

The classic River Trips application is still available for use. It is updated with the new system using a data retrofit. It is no longer maintained. The original River Trips application is no longer updated (as of 1 Dec 2016) but can be checked for errors or for the condition of the data before it was converted to the new system.

Gauge Data Table

ObservationHeightDischargeMaximum
Discharge
Minimum
Discharge
Mean
Discharge
P05P10P20P25P50
(Median)
P75P80P90P95
2020-04-04 22:00 16.47 37500 22900 (2019) 3810 (2016) 10500 3810 4170 7680 19700 22900
2020-04-04 21:00 16.50 37600 22900 (2019) 3810 (2016) 10500 3810 4170 7680 19700 22900
2020-04-04 20:00 16.48 37500 22900 (2019) 3810 (2016) 10500 3810 4170 7680 19700 22900
2020-04-04 19:00 16.45 37400 22900 (2019) 3810 (2016) 10500 3810 4170 7680 19700 22900
2020-04-04 18:00 16.44 37400 22900 (2019) 3810 (2016) 10500 3810 4170 7680 19700 22900
2020-04-04 17:00 16.40 37200 22900 (2019) 3810 (2016) 10500 3810 4170 7680 19700 22900
2020-04-04 16:00 16.34 37000 22900 (2019) 3810 (2016) 10500 3810 4170 7680 19700 22900
2020-04-04 15:00 16.32 37000 22900 (2019) 3810 (2016) 10500 3810 4170 7680 19700 22900
2020-04-04 14:00 16.24 36700 22900 (2019) 3810 (2016) 10500 3810 4170 7680 19700 22900
2020-04-04 13:00 16.18 36500 22900 (2019) 3810 (2016) 10500 3810 4170 7680 19700 22900
2020-04-04 12:00 16.10 36300 22900 (2019) 3810 (2016) 10500 3810 4170 7680 19700 22900
2020-04-04 11:00 16.05 36100 22900 (2019) 3810 (2016) 10500 3810 4170 7680 19700 22900
2020-04-04 10:00 15.99 35900 22900 (2019) 3810 (2016) 10500 3810 4170 7680 19700 22900
2020-04-04 09:00 15.90 35600 22900 (2019) 3810 (2016) 10500 3810 4170 7680 19700 22900
2020-04-04 08:00 15.82 35400 22900 (2019) 3810 (2016) 10500 3810 4170 7680 19700 22900
2020-04-04 07:00 15.70 35000 22900 (2019) 3810 (2016) 10500 3810 4170 7680 19700 22900
2020-04-04 06:00 15.64 34800 22900 (2019) 3810 (2016) 10500 3810 4170 7680 19700 22900
2020-04-04 05:00 15.61 34700 22900 (2019) 3810 (2016) 10500 3810 4170 7680 19700 22900
2020-04-04 04:00 15.69 35000 22900 (2019) 3810 (2016) 10500 3810 4170 7680 19700 22900
2020-04-04 03:00 15.80 35300 22900 (2019) 3810 (2016) 10500 3810 4170 7680 19700 22900
2020-04-04 02:00 16.18 36500 22900 (2019) 3810 (2016) 10500 3810 4170 7680 19700 22900
2020-04-04 01:00 16.48 37500 22900 (2019) 3810 (2016) 10500 3810 4170 7680 19700 22900
2020-04-04 00:00 16.49 37500 22900 (2019) 3810 (2016) 10500 3810 4170 7680 19700 22900
2020-04-03 23:00 16.50 37600 19600 (2018) 3800 (2016) 11100 3800 3880 10500 18900 19600
2020-04-03 22:00 16.48 37500 19600 (2018) 3800 (2016) 11100 3800 3880 10500 18900 19600
2020-04-03 21:00 16.48 37500 19600 (2018) 3800 (2016) 11100 3800 3880 10500 18900 19600
2020-04-03 20:00 16.45 37400 19600 (2018) 3800 (2016) 11100 3800 3880 10500 18900 19600
2020-04-03 19:00 16.47 37500 19600 (2018) 3800 (2016) 11100 3800 3880 10500 18900 19600
2020-04-03 18:00 16.45 37400 19600 (2018) 3800 (2016) 11100 3800 3880 10500 18900 19600
2020-04-03 17:00 16.43 37300 19600 (2018) 3800 (2016) 11100 3800 3880 10500 18900 19600
2020-04-03 16:00 16.41 37300 19600 (2018) 3800 (2016) 11100 3800 3880 10500 18900 19600
2020-04-03 15:00 16.41 37300 19600 (2018) 3800 (2016) 11100 3800 3880 10500 18900 19600
2020-04-03 14:00 16.43 37300 19600 (2018) 3800 (2016) 11100 3800 3880 10500 18900 19600
2020-04-03 13:00 16.49 37500 19600 (2018) 3800 (2016) 11100 3800 3880 10500 18900 19600
2020-04-03 12:00 16.48 37500 19600 (2018) 3800 (2016) 11100 3800 3880 10500 18900 19600
2020-04-03 11:00 16.47 37500 19600 (2018) 3800 (2016) 11100 3800 3880 10500 18900 19600
2020-04-03 10:00 16.45 37400 19600 (2018) 3800 (2016) 11100 3800 3880 10500 18900 19600
2020-04-03 09:00 16.44 37400 19600 (2018) 3800 (2016) 11100 3800 3880 10500 18900 19600
2020-04-03 08:00 16.43 37300 19600 (2018) 3800 (2016) 11100 3800 3880 10500 18900 19600
2020-04-03 07:00 16.42 37300 19600 (2018) 3800 (2016) 11100 3800 3880 10500 18900 19600
2020-04-03 06:00 16.38 37200 19600 (2018) 3800 (2016) 11100 3800 3880 10500 18900 19600
2020-04-03 05:00 16.39 37200 19600 (2018) 3800 (2016) 11100 3800 3880 10500 18900 19600
2020-04-03 04:00 16.37 37100 19600 (2018) 3800 (2016) 11100 3800 3880 10500 18900 19600
2020-04-03 03:00 16.34 37000 19600 (2018) 3800 (2016) 11100 3800 3880 10500 18900 19600
2020-04-03 02:00 16.34 37000 19600 (2018) 3800 (2016) 11100 3800 3880 10500 18900 19600
2020-04-03 01:00 16.28 36800 19600 (2018) 3800 (2016) 11100 3800 3880 10500 18900 19600
2020-04-03 00:00 16.27 36800 19600 (2018) 3800 (2016) 11100 3800 3880 10500 18900 19600
2020-04-02 23:00 16.26 36800 24200 (2018) 3840 (2016) 10400 3840 3850 6690 20500 24200
2020-04-02 22:00 16.25 36800 24200 (2018) 3840 (2016) 10400 3840 3850 6690 20500 24200
2020-04-02 21:00 16.19 36600 24200 (2018) 3840 (2016) 10400 3840 3850 6690 20500 24200
2020-04-02 20:00 16.18 36500 24200 (2018) 3840 (2016) 10400 3840 3850 6690 20500 24200
2020-04-02 19:00 16.15 36400 24200 (2018) 3840 (2016) 10400 3840 3850 6690 20500 24200
2020-04-02 18:00 16.10 36300 24200 (2018) 3840 (2016) 10400 3840 3850 6690 20500 24200
2020-04-02 17:00 16.05 36100 24200 (2018) 3840 (2016) 10400 3840 3850 6690 20500 24200
2020-04-02 16:00 15.98 35900 24200 (2018) 3840 (2016) 10400 3840 3850 6690 20500 24200
2020-04-02 15:00 15.89 35600 24200 (2018) 3840 (2016) 10400 3840 3850 6690 20500 24200
2020-04-02 14:00 15.80 35300 24200 (2018) 3840 (2016) 10400 3840 3850 6690 20500 24200
2020-04-02 13:00 15.71 35000 24200 (2018) 3840 (2016) 10400 3840 3850 6690 20500 24200
2020-04-02 12:00 15.60 34700 24200 (2018) 3840 (2016) 10400 3840 3850 6690 20500 24200
2020-04-02 11:00 15.43 34200 24200 (2018) 3840 (2016) 10400 3840 3850 6690 20500 24200
2020-04-02 10:00 15.27 33700 24200 (2018) 3840 (2016) 10400 3840 3850 6690 20500 24200
2020-04-02 09:00 15.12 33200 24200 (2018) 3840 (2016) 10400 3840 3850 6690 20500 24200
2020-04-02 08:00 14.93 32600 24200 (2018) 3840 (2016) 10400 3840 3850 6690 20500 24200
2020-04-02 07:00 14.78 32100 24200 (2018) 3840 (2016) 10400 3840 3850 6690 20500 24200
2020-04-02 06:00 14.88 32500 24200 (2018) 3840 (2016) 10400 3840 3850 6690 20500 24200
2020-04-02 05:00 15.29 33700 24200 (2018) 3840 (2016) 10400 3840 3850 6690 20500 24200
2020-04-02 04:00 15.83 35400 24200 (2018) 3840 (2016) 10400 3840 3850 6690 20500 24200
2020-04-02 03:00 16.43 37300 24200 (2018) 3840 (2016) 10400 3840 3850 6690 20500 24200
2020-04-02 02:00 16.74 38300 24200 (2018) 3840 (2016) 10400 3840 3850 6690 20500 24200
2020-04-02 01:00 16.69 38200 24200 (2018) 3840 (2016) 10400 3840 3850 6690 20500 24200
2020-04-02 00:00 16.76 38400 24200 (2018) 3840 (2016) 10400 3840 3850 6690 20500 24200
2020-04-01 23:00 16.74 38300 10400 (2018) 3940 (2016) 5610 3940 3960 4050 8820 10400
2020-04-01 22:00 16.75 38400 10400 (2018) 3940 (2016) 5610 3940 3960 4050 8820 10400
2020-04-01 21:00 16.73 38300 10400 (2018) 3940 (2016) 5610 3940 3960 4050 8820 10400
2020-04-01 20:00 16.73 38300 10400 (2018) 3940 (2016) 5610 3940 3960 4050 8820 10400
2020-04-01 19:00 16.75 38400 10400 (2018) 3940 (2016) 5610 3940 3960 4050 8820 10400
2020-04-01 18:00 16.75 38400 10400 (2018) 3940 (2016) 5610 3940 3960 4050 8820 10400
2020-04-01 17:00 16.77 38400 10400 (2018) 3940 (2016) 5610 3940 3960 4050 8820 10400
2020-04-01 16:00 16.77 38400 10400 (2018) 3940 (2016) 5610 3940 3960 4050 8820 10400
2020-04-01 15:00 16.77 38400 10400 (2018) 3940 (2016) 5610 3940 3960 4050 8820 10400
2020-04-01 14:00 16.76 38400 10400 (2018) 3940 (2016) 5610 3940 3960 4050 8820 10400
2020-04-01 13:00 16.74 38300 10400 (2018) 3940 (2016) 5610 3940 3960 4050 8820 10400
2020-04-01 12:00 16.75 38400 10400 (2018) 3940 (2016) 5610 3940 3960 4050 8820 10400
2020-04-01 11:00 16.77 38400 10400 (2018) 3940 (2016) 5610 3940 3960 4050 8820 10400
2020-04-01 10:00 16.76 38400 10400 (2018) 3940 (2016) 5610 3940 3960 4050 8820 10400
2020-04-01 09:00 16.75 38400 10400 (2018) 3940 (2016) 5610 3940 3960 4050 8820 10400
2020-04-01 08:00 16.76 38400 10400 (2018) 3940 (2016) 5610 3940 3960 4050 8820 10400
2020-04-01 07:00 16.75 38400 10400 (2018) 3940 (2016) 5610 3940 3960 4050 8820 10400
2020-04-01 06:00 16.75 38400 10400 (2018) 3940 (2016) 5610 3940 3960 4050 8820 10400
2020-04-01 05:00 16.76 38400 10400 (2018) 3940 (2016) 5610 3940 3960 4050 8820 10400
2020-04-01 04:00 16.73 38300 10400 (2018) 3940 (2016) 5610 3940 3960 4050 8820 10400
2020-04-01 03:00 16.74 38300 10400 (2018) 3940 (2016) 5610 3940 3960 4050 8820 10400
2020-04-01 02:00 16.73 38300 10400 (2018) 3940 (2016) 5610 3940 3960 4050 8820 10400
2020-04-01 01:00 16.76 38400 10400 (2018) 3940 (2016) 5610 3940 3960 4050 8820 10400
2020-04-01 00:00 16.75 38400 10400 (2018) 3940 (2016) 5610 3940 3960 4050 8820 10400
2020-03-31 23:00 16.78 38500 4600 (2018) 4090 (2017) 4380 4090 4150 4410 4570 4600
2020-03-31 22:00 16.78 38500 4600 (2018) 4090 (2017) 4380 4090 4150 4410 4570 4600
2020-03-31 21:00 16.80 38500 4600 (2018) 4090 (2017) 4380 4090 4150 4410 4570 4600
2020-03-31 20:00 16.79 38500 4600 (2018) 4090 (2017) 4380 4090 4150 4410 4570 4600
2020-03-31 19:00 16.79 38500 4600 (2018) 4090 (2017) 4380 4090 4150 4410 4570 4600
2020-03-31 18:00 16.76 38400 4600 (2018) 4090 (2017) 4380 4090 4150 4410 4570 4600
2020-03-31 17:00 16.81 38600 4600 (2018) 4090 (2017) 4380 4090 4150 4410 4570 4600
2020-03-31 16:00 16.79 38500 4600 (2018) 4090 (2017) 4380 4090 4150 4410 4570 4600
2020-03-31 15:00 16.82 38600 4600 (2018) 4090 (2017) 4380 4090 4150 4410 4570 4600
2020-03-31 14:00 16.79 38500 4600 (2018) 4090 (2017) 4380 4090 4150 4410 4570 4600
2020-03-31 13:00 16.82 38600 4600 (2018) 4090 (2017) 4380 4090 4150 4410 4570 4600
2020-03-31 12:00 16.80 38500 4600 (2018) 4090 (2017) 4380 4090 4150 4410 4570 4600
2020-03-31 11:00 16.79 38500 4600 (2018) 4090 (2017) 4380 4090 4150 4410 4570 4600
2020-03-31 10:00 16.85 38700 4600 (2018) 4090 (2017) 4380 4090 4150 4410 4570 4600
2020-03-31 09:00 16.86 38700 4600 (2018) 4090 (2017) 4380 4090 4150 4410 4570 4600
2020-03-31 08:00 16.92 39000 4600 (2018) 4090 (2017) 4380 4090 4150 4410 4570 4600
2020-03-31 07:00 16.95 39100 4600 (2018) 4090 (2017) 4380 4090 4150 4410 4570 4600
2020-03-31 06:00 16.97 39100 4600 (2018) 4090 (2017) 4380 4090 4150 4410 4570 4600
2020-03-31 05:00 17.01 39300 4600 (2018) 4090 (2017) 4380 4090 4150 4410 4570 4600
2020-03-31 04:00 17.08 39500 4600 (2018) 4090 (2017) 4380 4090 4150 4410 4570 4600
2020-03-31 03:00 17.15 39800 4600 (2018) 4090 (2017) 4380 4090 4150 4410 4570 4600
2020-03-31 02:00 17.21 40000 4600 (2018) 4090 (2017) 4380 4090 4150 4410 4570 4600
2020-03-31 01:00 17.23 40000 4600 (2018) 4090 (2017) 4380 4090 4150 4410 4570 4600
2020-03-31 00:00 17.23 40000 4600 (2018) 4090 (2017) 4380 4090 4150 4410 4570 4600
2020-03-30 23:00 17.18 39900 7520 (2018) 2560 (2017) 4540 2560 2910 4030 6670 7520
2020-03-30 22:00 17.19 39900 7520 (2018) 2560 (2017) 4540 2560 2910 4030 6670 7520
2020-03-30 21:00 17.23 40000 7520 (2018) 2560 (2017) 4540 2560 2910 4030 6670 7520
2020-03-30 20:00 17.20 39900 7520 (2018) 2560 (2017) 4540 2560 2910 4030 6670 7520
2020-03-30 19:00 17.21 40000 7520 (2018) 2560 (2017) 4540 2560 2910 4030 6670 7520
2020-03-30 18:00 17.21 40000 7520 (2018) 2560 (2017) 4540 2560 2910 4030 6670 7520
2020-03-30 17:00 17.19 39900 7520 (2018) 2560 (2017) 4540 2560 2910 4030 6670 7520
2020-03-30 16:00 17.18 39900 7520 (2018) 2560 (2017) 4540 2560 2910 4030 6670 7520
2020-03-30 15:00 17.22 40000 7520 (2018) 2560 (2017) 4540 2560 2910 4030 6670 7520
2020-03-30 14:00 17.18 39900 7520 (2018) 2560 (2017) 4540 2560 2910 4030 6670 7520
2020-03-30 13:00 17.21 40000 7520 (2018) 2560 (2017) 4540 2560 2910 4030 6670 7520
2020-03-30 12:00 17.22 40000 7520 (2018) 2560 (2017) 4540 2560 2910 4030 6670 7520
2020-03-30 11:00 17.21 40000 7520 (2018) 2560 (2017) 4540 2560 2910 4030 6670 7520
2020-03-30 10:00 17.23 40000 7520 (2018) 2560 (2017) 4540 2560 2910 4030 6670 7520
2020-03-30 09:00 17.20 39900 7520 (2018) 2560 (2017) 4540 2560 2910 4030 6670 7520
2020-03-30 08:00 17.24 40100 7520 (2018) 2560 (2017) 4540 2560 2910 4030 6670 7520
2020-03-30 07:00 17.22 40000 7520 (2018) 2560 (2017) 4540 2560 2910 4030 6670 7520
2020-03-30 06:00 17.24 40100 7520 (2018) 2560 (2017) 4540 2560 2910 4030 6670 7520
2020-03-30 05:00 17.24 40100 7520 (2018) 2560 (2017) 4540 2560 2910 4030 6670 7520
2020-03-30 04:00 17.25 40100 7520 (2018) 2560 (2017) 4540 2560 2910 4030 6670 7520
2020-03-30 03:00 17.24 40100 7520 (2018) 2560 (2017) 4540 2560 2910 4030 6670 7520
2020-03-30 02:00 17.29 40200 7520 (2018) 2560 (2017) 4540 2560 2910 4030 6670 7520
2020-03-30 01:00 17.30 40300 7520 (2018) 2560 (2017) 4540 2560 2910 4030 6670 7520
2020-03-30 00:00 17.32 40300 7520 (2018) 2560 (2017) 4540 2560 2910 4030 6670 7520
2020-03-29 23:00 17.30 40300 14800 (2018) 1890 (2019) 5580 1890 1910 2810 12000 14800
2020-03-29 22:00 17.31 40300 14800 (2018) 1890 (2019) 5580 1890 1910 2810 12000 14800
2020-03-29 21:00 17.35 40500 14800 (2018) 1890 (2019) 5580 1890 1910 2810 12000 14800
2020-03-29 20:00 17.36 40500 14800 (2018) 1890 (2019) 5580 1890 1910 2810 12000 14800
2020-03-29 19:00 40300 14800 (2018) 1890 (2019) 5580 1890 1910 2810 12000 14800
2020-03-29 18:00 17.34 40400 14800 (2018) 1890 (2019) 5580 1890 1910 2810 12000 14800
2020-03-29 17:00 17.39 40600 14800 (2018) 1890 (2019) 5580 1890 1910 2810 12000 14800
2020-03-29 16:00 17.41 40700 14800 (2018) 1890 (2019) 5580 1890 1910 2810 12000 14800
2020-03-29 15:00 17.42 40700 14800 (2018) 1890 (2019) 5580 1890 1910 2810 12000 14800
2020-03-29 14:00 17.44 40800 14800 (2018) 1890 (2019) 5580 1890 1910 2810 12000 14800
2020-03-29 13:00 17.41 40700 14800 (2018) 1890 (2019) 5580 1890 1910 2810 12000 14800
2020-03-29 12:00 17.41 40700 14800 (2018) 1890 (2019) 5580 1890 1910 2810 12000 14800
2020-03-29 11:00 17.40 40600 14800 (2018) 1890 (2019) 5580 1890 1910 2810 12000 14800
2020-03-29 10:00 17.44 40800 14800 (2018) 1890 (2019) 5580 1890 1910 2810 12000 14800
2020-03-29 09:00 17.42 40700 14800 (2018) 1890 (2019) 5580 1890 1910 2810 12000 14800
2020-03-29 08:00 17.38 40600 14800 (2018) 1890 (2019) 5580 1890 1910 2810 12000 14800
2020-03-29 07:00 17.41 40700 14800 (2018) 1890 (2019) 5580 1890 1910 2810 12000 14800
2020-03-29 06:00 17.39 40600 14800 (2018) 1890 (2019) 5580 1890 1910 2810 12000 14800
2020-03-29 05:00 17.41 40700 14800 (2018) 1890 (2019) 5580 1890 1910 2810 12000 14800
2020-03-29 04:00 17.43 40700 14800 (2018) 1890 (2019) 5580 1890 1910 2810 12000 14800
2020-03-29 03:00 17.42 40700 14800 (2018) 1890 (2019) 5580 1890 1910 2810 12000 14800
2020-03-29 02:00 17.41 40700 14800 (2018) 1890 (2019) 5580 1890 1910 2810 12000 14800
2020-03-29 01:00 17.46 40800 14800 (2018) 1890 (2019) 5580 1890 1910 2810 12000 14800
2020-03-29 00:00 17.42 40700 14800 (2018) 1890 (2019) 5580 1890 1910 2810 12000 14800
2020-03-28 23:00 17.45 40800 12200 (2018) 3030 (2019) 5580 3030 3120 3550 10100 12200
2020-03-28 22:00 17.45 40800 12200 (2018) 3030 (2019) 5580 3030 3120 3550 10100 12200
2020-03-28 21:00 17.42 40700 12200 (2018) 3030 (2019) 5580 3030 3120 3550 10100 12200
2020-03-28 20:00 17.45 40800 12200 (2018) 3030 (2019) 5580 3030 3120 3550 10100 12200
2020-03-28 19:00 17.44 40800 12200 (2018) 3030 (2019) 5580 3030 3120 3550 10100 12200
2020-03-28 18:00 17.45 40800 12200 (2018) 3030 (2019) 5580 3030 3120 3550 10100 12200
2020-03-28 17:00 17.44 40800 12200 (2018) 3030 (2019) 5580 3030 3120 3550 10100 12200
2020-03-28 16:00 17.44 40800 12200 (2018) 3030 (2019) 5580 3030 3120 3550 10100 12200
2020-03-28 15:00 17.43 40700 12200 (2018) 3030 (2019) 5580 3030 3120 3550 10100 12200
2020-03-28 14:00 17.47 40900 12200 (2018) 3030 (2019) 5580 3030 3120 3550 10100 12200
2020-03-28 13:00 17.45 40800 12200 (2018) 3030 (2019) 5580 3030 3120 3550 10100 12200
2020-03-28 12:00 17.41 40700 12200 (2018) 3030 (2019) 5580 3030 3120 3550 10100 12200
2020-03-28 11:00 17.44 40800 12200 (2018) 3030 (2019) 5580 3030 3120 3550 10100 12200
2020-03-28 10:00 17.41 40700 12200 (2018) 3030 (2019) 5580 3030 3120 3550 10100 12200
2020-03-28 09:00 17.44 40800 12200 (2018) 3030 (2019) 5580 3030 3120 3550 10100 12200
2020-03-28 08:00 17.42 40700 12200 (2018) 3030 (2019) 5580 3030 3120 3550 10100 12200
2020-03-28 07:00 17.43 40700 12200 (2018) 3030 (2019) 5580 3030 3120 3550 10100 12200
2020-03-28 06:00 17.41 40700 12200 (2018) 3030 (2019) 5580 3030 3120 3550 10100 12200
2020-03-28 05:00 17.42 40700 12200 (2018) 3030 (2019) 5580 3030 3120 3550 10100 12200
2020-03-28 04:00 17.43 40700 12200 (2018) 3030 (2019) 5580 3030 3120 3550 10100 12200
2020-03-28 03:00 17.42 40700 12200 (2018) 3030 (2019) 5580 3030 3120 3550 10100 12200
2020-03-28 02:00 17.39 40600 12200 (2018) 3030 (2019) 5580 3030 3120 3550 10100 12200
2020-03-28 01:00 17.42 40700 12200 (2018) 3030 (2019) 5580 3030 3120 3550 10100 12200
2020-03-28 00:00 17.37 40500 12200 (2018) 3030 (2019) 5580 3030 3120 3550 10100 12200
2020-03-27 23:00 17.39 40600 15200 (2018) 1190 (2017) 5940 1190 1800 3670 12300 15200
2020-03-27 22:00 17.38 40600 15200 (2018) 1190 (2017) 5940 1190 1800 3670 12300 15200
2020-03-27 21:00 17.36 40500 15200 (2018) 1190 (2017) 5940 1190 1800 3670 12300 15200
2020-03-27 20:00 17.37 40500 15200 (2018) 1190 (2017) 5940 1190 1800 3670 12300 15200
2020-03-27 19:00 17.34 40400 15200 (2018) 1190 (2017) 5940 1190 1800 3670 12300 15200
2020-03-27 18:00 17.32 40300 15200 (2018) 1190 (2017) 5940 1190 1800 3670 12300 15200
2020-03-27 17:00 17.30 40300 15200 (2018) 1190 (2017) 5940 1190 1800 3670 12300 15200
2020-03-27 16:00 17.31 40300 15200 (2018) 1190 (2017) 5940 1190 1800 3670 12300 15200
2020-03-27 15:00 17.43 40700 15200 (2018) 1190 (2017) 5940 1190 1800 3670 12300 15200
2020-03-27 14:00 17.46 40800 15200 (2018) 1190 (2017) 5940 1190 1800 3670 12300 15200
2020-03-27 13:00 17.45 40800 15200 (2018) 1190 (2017) 5940 1190 1800 3670 12300 15200
2020-03-27 12:00 17.43 40700 15200 (2018) 1190 (2017) 5940 1190 1800 3670 12300 15200
2020-03-27 11:00 17.41 40700 15200 (2018) 1190 (2017) 5940 1190 1800 3670 12300 15200
2020-03-27 10:00 17.45 40800 15200 (2018) 1190 (2017) 5940 1190 1800 3670 12300 15200
2020-03-27 09:00 17.46 40800 15200 (2018) 1190 (2017) 5940 1190 1800 3670 12300 15200
2020-03-27 08:00 17.45 40800 15200 (2018) 1190 (2017) 5940 1190 1800 3670 12300 15200
2020-03-27 07:00 17.44 40800 15200 (2018) 1190 (2017) 5940 1190 1800 3670 12300 15200
2020-03-27 06:00 17.42 40700 15200 (2018) 1190 (2017) 5940 1190 1800 3670 12300 15200
2020-03-27 05:00 17.43 40700 15200 (2018) 1190 (2017) 5940 1190 1800 3670 12300 15200
2020-03-27 04:00 17.42 40700 15200 (2018) 1190 (2017) 5940 1190 1800 3670 12300 15200
2020-03-27 03:00 17.45 40800 15200 (2018) 1190 (2017) 5940 1190 1800 3670 12300 15200
2020-03-27 02:00 17.41 40700 15200 (2018) 1190 (2017) 5940 1190 1800 3670 12300 15200
2020-03-27 01:00 17.40 40600 15200 (2018) 1190 (2017) 5940 1190 1800 3670 12300 15200
2020-03-27 00:00 17.38 40600 15200 (2018) 1190 (2017) 5940 1190 1800 3670 12300 15200
2020-03-26 23:00 17.40 40600 15800 (2018) 1340 (2017) 6250 1340 1930 3930 12900 15800
2020-03-26 22:00 17.38 40600 15800 (2018) 1340 (2017) 6250 1340 1930 3930 12900 15800
2020-03-26 21:00 17.34 40400 15800 (2018) 1340 (2017) 6250 1340 1930 3930 12900 15800
2020-03-26 20:00 17.34 40400 15800 (2018) 1340 (2017) 6250 1340 1930 3930 12900 15800
2020-03-26 19:00 17.32 40300 15800 (2018) 1340 (2017) 6250 1340 1930 3930 12900 15800
2020-03-26 18:00 17.31 40300 15800 (2018) 1340 (2017) 6250 1340 1930 3930 12900 15800
2020-03-26 17:00 17.26 40100 15800 (2018) 1340 (2017) 6250 1340 1930 3930 12900 15800
2020-03-26 16:00 17.29 40200 15800 (2018) 1340 (2017) 6250 1340 1930 3930 12900 15800
2020-03-26 15:00 17.48 40900 15800 (2018) 1340 (2017) 6250 1340 1930 3930 12900 15800
2020-03-26 14:00 17.48 40900 15800 (2018) 1340 (2017) 6250 1340 1930 3930 12900 15800
2020-03-26 13:00 17.48 40900 15800 (2018) 1340 (2017) 6250 1340 1930 3930 12900 15800
2020-03-26 12:00 17.51 41000 15800 (2018) 1340 (2017) 6250 1340 1930 3930 12900 15800
2020-03-26 11:00 17.49 40900 15800 (2018) 1340 (2017) 6250 1340 1930 3930 12900 15800
2020-03-26 10:00 17.49 40900 15800 (2018) 1340 (2017) 6250 1340 1930 3930 12900 15800
2020-03-26 09:00 17.50 41000 15800 (2018) 1340 (2017) 6250 1340 1930 3930 12900 15800
2020-03-26 08:00 17.49 40900 15800 (2018) 1340 (2017) 6250 1340 1930 3930 12900 15800
2020-03-26 07:00 17.48 40900 15800 (2018) 1340 (2017) 6250 1340 1930 3930 12900 15800
2020-03-26 06:00 17.46 40800 15800 (2018) 1340 (2017) 6250 1340 1930 3930 12900 15800
2020-03-26 05:00 17.49 40900 15800 (2018) 1340 (2017) 6250 1340 1930 3930 12900 15800
2020-03-26 04:00 17.48 40900 15800 (2018) 1340 (2017) 6250 1340 1930 3930 12900 15800
2020-03-26 03:00 17.46 40800 15800 (2018) 1340 (2017) 6250 1340 1930 3930 12900 15800
2020-03-26 02:00 17.45 40800 15800 (2018) 1340 (2017) 6250 1340 1930 3930 12900 15800
2020-03-26 01:00 17.43 40700 15800 (2018) 1340 (2017) 6250 1340 1930 3930 12900 15800
2020-03-26 00:00 17.43 40700 15800 (2018) 1340 (2017) 6250 1340 1930 3930 12900 15800
2020-03-25 23:00 17.38 40600 5280 (2019) 1180 (2017) 3490 1180 1810 3760 4910 5280
2020-03-25 22:00 17.37 40500 5280 (2019) 1180 (2017) 3490 1180 1810 3760 4910 5280
2020-03-25 21:00 17.36 40500 5280 (2019) 1180 (2017) 3490 1180 1810 3760 4910 5280
2020-03-25 20:00 17.31 40300 5280 (2019) 1180 (2017) 3490 1180 1810 3760 4910 5280
2020-03-25 19:00 17.28 40200 5280 (2019) 1180 (2017) 3490 1180 1810 3760 4910 5280
2020-03-25 18:00 17.21 40000 5280 (2019) 1180 (2017) 3490 1180 1810 3760 4910 5280
2020-03-25 17:00 17.15 39800 5280 (2019) 1180 (2017) 3490 1180 1810 3760 4910 5280
2020-03-25 16:00 17.09 39500 5280 (2019) 1180 (2017) 3490 1180 1810 3760 4910 5280
2020-03-25 15:00 16.97 39100 5280 (2019) 1180 (2017) 3490 1180 1810 3760 4910 5280
2020-03-25 14:00 16.89 38900 5280 (2019) 1180 (2017) 3490 1180 1810 3760 4910 5280
2020-03-25 13:00 16.76 38400 5280 (2019) 1180 (2017) 3490 1180 1810 3760 4910 5280
2020-03-25 12:00 16.66 38100 5280 (2019) 1180 (2017) 3490 1180 1810 3760 4910 5280
2020-03-25 11:00 16.53 37600 5280 (2019) 1180 (2017) 3490 1180 1810 3760 4910 5280
2020-03-25 10:00 16.35 37100 5280 (2019) 1180 (2017) 3490 1180 1810 3760 4910 5280
2020-03-25 09:00 16.16 36500 5280 (2019) 1180 (2017) 3490 1180 1810 3760 4910 5280
2020-03-25 08:00 16.03 36100 5280 (2019) 1180 (2017) 3490 1180 1810 3760 4910 5280
2020-03-25 07:00 15.91 35700 5280 (2019) 1180 (2017) 3490 1180 1810 3760 4910 5280
2020-03-25 06:00 15.94 35800 5280 (2019) 1180 (2017) 3490 1180 1810 3760 4910 5280
2020-03-25 05:00 16.12 36300 5280 (2019) 1180 (2017) 3490 1180 1810 3760 4910 5280
2020-03-25 04:00 16.75 38400 5280 (2019) 1180 (2017) 3490 1180 1810 3760 4910 5280
2020-03-25 03:00 17.31 40300 5280 (2019) 1180 (2017) 3490 1180 1810 3760 4910 5280
2020-03-25 02:00 17.32 40300 5280 (2019) 1180 (2017) 3490 1180 1810 3760 4910 5280
2020-03-25 01:00 17.29 40200 5280 (2019) 1180 (2017) 3490 1180 1810 3760 4910 5280
2020-03-25 00:00 17.26 40100 5280 (2019) 1180 (2017) 3490 1180 1810 3760 4910 5280
2020-03-24 23:00 17.28 40200 7060 (2018) 1100 (2017) 3890 1100 1740 3700 6230 7060
2020-03-24 22:00 17.28 40200 7060 (2018) 1100 (2017) 3890 1100 1740 3700 6230 7060
2020-03-24 21:00 17.28 40200 7060 (2018) 1100 (2017) 3890 1100 1740 3700 6230 7060
2020-03-24 20:00 17.27 40200 7060 (2018) 1100 (2017) 3890 1100 1740 3700 6230 7060
2020-03-24 19:00 17.24 40100 7060 (2018) 1100 (2017) 3890 1100 1740 3700 6230 7060
2020-03-24 18:00 17.21 40000 7060 (2018) 1100 (2017) 3890 1100 1740 3700 6230 7060
2020-03-24 17:00 17.20 39900 7060 (2018) 1100 (2017) 3890 1100 1740 3700 6230 7060
2020-03-24 16:00 17.15 39800 7060 (2018) 1100 (2017) 3890 1100 1740 3700 6230 7060
2020-03-24 15:00 17.06 39400 7060 (2018) 1100 (2017) 3890 1100 1740 3700 6230 7060
2020-03-24 14:00 16.96 39100 7060 (2018) 1100 (2017) 3890 1100 1740 3700 6230 7060
2020-03-24 13:00 16.88 38800 7060 (2018) 1100 (2017) 3890 1100 1740 3700 6230 7060
2020-03-24 12:00 16.78 38500 7060 (2018) 1100 (2017) 3890 1100 1740 3700 6230 7060
2020-03-24 11:00 16.72 38300 7060 (2018) 1100 (2017) 3890 1100 1740 3700 6230 7060
2020-03-24 10:00 16.65 38000 7060 (2018) 1100 (2017) 3890 1100 1740 3700 6230 7060
2020-03-24 09:00 16.57 37800 7060 (2018) 1100 (2017) 3890 1100 1740 3700 6230 7060
2020-03-24 08:00 16.54 37700 7060 (2018) 1100 (2017) 3890 1100 1740 3700 6230 7060
2020-03-24 07:00 16.48 37500 7060 (2018) 1100 (2017) 3890 1100 1740 3700 6230 7060
2020-03-24 06:00 16.39 37200 7060 (2018) 1100 (2017) 3890 1100 1740 3700 6230 7060
2020-03-24 05:00 16.30 36900 7060 (2018) 1100 (2017) 3890 1100 1740 3700 6230 7060
2020-03-24 04:00 16.22 36700 7060 (2018) 1100 (2017) 3890 1100 1740 3700 6230 7060
2020-03-24 03:00 16.13 36400 7060 (2018) 1100 (2017) 3890 1100 1740 3700 6230 7060
2020-03-24 02:00 16.02 36000 7060 (2018) 1100 (2017) 3890 1100 1740 3700 6230 7060
2020-03-24 01:00 15.90 35600 7060 (2018) 1100 (2017) 3890 1100 1740 3700 6230 7060
2020-03-24 00:00 15.77 35200 7060 (2018) 1100 (2017) 3890 1100 1740 3700 6230 7060
2020-03-23 23:00 15.62 34800 17700 (2018) 1170 (2017) 6680 1170 1800 3920 14300 17700
2020-03-23 22:00 15.44 34200 17700 (2018) 1170 (2017) 6680 1170 1800 3920 14300 17700
2020-03-23 21:00 15.18 33400 17700 (2018) 1170 (2017) 6680 1170 1800 3920 14300 17700
2020-03-23 20:00 14.94 32600 17700 (2018) 1170 (2017) 6680 1170 1800 3920 14300 17700
2020-03-23 19:00 14.56 31500 17700 (2018) 1170 (2017) 6680 1170 1800 3920 14300 17700
2020-03-23 18:00 14.21 30400 17700 (2018) 1170 (2017) 6680 1170 1800 3920 14300 17700
2020-03-23 17:00 13.78 29100 17700 (2018) 1170 (2017) 6680 1170 1800 3920 14300 17700
2020-03-23 16:00 13.35 27900 17700 (2018) 1170 (2017) 6680 1170 1800 3920 14300 17700
2020-03-23 15:00 13.20 27400 17700 (2018) 1170 (2017) 6680 1170 1800 3920 14300 17700
2020-03-23 14:00 13.61 28600 17700 (2018) 1170 (2017) 6680 1170 1800 3920 14300 17700
2020-03-23 13:00 14.06 30000 17700 (2018) 1170 (2017) 6680 1170 1800 3920 14300 17700
2020-03-23 12:00 14.59 31600 17700 (2018) 1170 (2017) 6680 1170 1800 3920 14300 17700
2020-03-23 11:00 15.18 33400 17700 (2018) 1170 (2017) 6680 1170 1800 3920 14300 17700
2020-03-23 10:00 15.81 35400 17700 (2018) 1170 (2017) 6680 1170 1800 3920 14300 17700
2020-03-23 09:00 16.44 37400 17700 (2018) 1170 (2017) 6680 1170 1800 3920 14300 17700
2020-03-23 08:00 16.56 37700 17700 (2018) 1170 (2017) 6680 1170 1800 3920 14300 17700
2020-03-23 07:00 16.57 37800 17700 (2018) 1170 (2017) 6680 1170 1800 3920 14300 17700
2020-03-23 06:00 16.59 37800 17700 (2018) 1170 (2017) 6680 1170 1800 3920 14300 17700
2020-03-23 05:00 16.61 37900 17700 (2018) 1170 (2017) 6680 1170 1800 3920 14300 17700
2020-03-23 04:00 16.59 37800 17700 (2018) 1170 (2017) 6680 1170 1800 3920 14300 17700
2020-03-23 03:00 16.62 37900 17700 (2018) 1170 (2017) 6680 1170 1800 3920 14300 17700
2020-03-23 02:00 16.56 37700 17700 (2018) 1170 (2017) 6680 1170 1800 3920 14300 17700
2020-03-23 01:00 16.51 37600 17700 (2018) 1170 (2017) 6680 1170 1800 3920 14300 17700
2020-03-23 00:00 16.45 37400 17700 (2018) 1170 (2017) 6680 1170 1800 3920 14300 17700
2020-03-22 23:00 16.37 37100 15000 (2018) 1030 (2017) 6180 1030 1700 4340 12500 15000
2020-03-22 22:00 16.30 36900 15000 (2018) 1030 (2017) 6180 1030 1700 4340 12500 15000
2020-03-22 21:00 16.21 36600 15000 (2018) 1030 (2017) 6180 1030 1700 4340 12500 15000
2020-03-22 20:00 16.10 36300 15000 (2018) 1030 (2017) 6180 1030 1700 4340 12500 15000
2020-03-22 19:00 15.95 35800 15000 (2018) 1030 (2017) 6180 1030 1700 4340 12500 15000
2020-03-22 18:00 15.78 35300 15000 (2018) 1030 (2017) 6180 1030 1700 4340 12500 15000
2020-03-22 17:00 15.56 34600 15000 (2018) 1030 (2017) 6180 1030 1700 4340 12500 15000
2020-03-22 16:00 15.26 33600 15000 (2018) 1030 (2017) 6180 1030 1700 4340 12500 15000
2020-03-22 15:00 14.93 32600 15000 (2018) 1030 (2017) 6180 1030 1700 4340 12500 15000
2020-03-22 14:00 14.56 31500 15000 (2018) 1030 (2017) 6180 1030 1700 4340 12500 15000
2020-03-22 13:00 14.01 29800 15000 (2018) 1030 (2017) 6180 1030 1700 4340 12500 15000
2020-03-22 12:00 13.29 27700 15000 (2018) 1030 (2017) 6180 1030 1700 4340 12500 15000
2020-03-22 11:00 12.53 25500 15000 (2018) 1030 (2017) 6180 1030 1700 4340 12500 15000
2020-03-22 10:00 11.92 23800 15000 (2018) 1030 (2017) 6180 1030 1700 4340 12500 15000
2020-03-22 09:00 11.69 23100 15000 (2018) 1030 (2017) 6180 1030 1700 4340 12500 15000
2020-03-22 08:00 11.73 23200 15000 (2018) 1030 (2017) 6180 1030 1700 4340 12500 15000
2020-03-22 07:00 11.76 23300 15000 (2018) 1030 (2017) 6180 1030 1700 4340 12500 15000
2020-03-22 06:00 11.65 23000 15000 (2018) 1030 (2017) 6180 1030 1700 4340 12500 15000
2020-03-22 05:00 11.49 22600 15000 (2018) 1030 (2017) 6180 1030 1700 4340 12500 15000
2020-03-22 04:00 11.26 21900 15000 (2018) 1030 (2017) 6180 1030 1700 4340 12500 15000
2020-03-22 03:00 11.00 21200 15000 (2018) 1030 (2017) 6180 1030 1700 4340 12500 15000
2020-03-22 02:00 10.78 20600 15000 (2018) 1030 (2017) 6180 1030 1700 4340 12500 15000
2020-03-22 01:00 10.72 20500 15000 (2018) 1030 (2017) 6180 1030 1700 4340 12500 15000
2020-03-22 00:00 10.99 21200 15000 (2018) 1030 (2017) 6180 1030 1700 4340 12500 15000
2020-03-21 23:00 11.20 21800 10800 (2018) 1090 (2017) 5560 1090 1740 5180 9770 10800
2020-03-21 22:00 11.06 21400 10800 (2018) 1090 (2017) 5560 1090 1740 5180 9770 10800
2020-03-21 21:00 10.90 21000 10800 (2018) 1090 (2017) 5560 1090 1740 5180 9770 10800
2020-03-21 20:00 10.67 20300 10800 (2018) 1090 (2017) 5560 1090 1740 5180 9770 10800
2020-03-21 19:00 10.36 19500 10800 (2018) 1090 (2017) 5560 1090 1740 5180 9770 10800
2020-03-21 18:00 1 18500 10800 (2018) 1090 (2017) 5560 1090 1740 5180 9770 10800
2020-03-21 17:00 9.53 17100 10800 (2018) 1090 (2017) 5560 1090 1740 5180 9770 10800
2020-03-21 16:00 9.03 15600 10800 (2018) 1090 (2017) 5560 1090 1740 5180 9770 10800
2020-03-21 15:00 8.60 14400 10800 (2018) 1090 (2017) 5560 1090 1740 5180 9770 10800
2020-03-21 14:00 8.38 13900 10800 (2018) 1090 (2017) 5560 1090 1740 5180 9770 10800
2020-03-21 13:00 8.12 13200 10800 (2018) 1090 (2017) 5560 1090 1740 5180 9770 10800
2020-03-21 12:00 7.80 12300 10800 (2018) 1090 (2017) 5560 1090 1740 5180 9770 10800
2020-03-21 11:00 7.49 11500 10800 (2018) 1090 (2017) 5560 1090 1740 5180 9770 10800
2020-03-21 10:00 7.27 11000 10800 (2018) 1090 (2017) 5560 1090 1740 5180 9770 10800
2020-03-21 09:00 7.29 11000 10800 (2018) 1090 (2017) 5560 1090 1740 5180 9770 10800
2020-03-21 08:00 7.57 11700 10800 (2018) 1090 (2017) 5560 1090 1740 5180 9770 10800
2020-03-21 07:00 7.90 12600 10800 (2018) 1090 (2017) 5560 1090 1740 5180 9770 10800
2020-03-21 06:00 8.29 13600 10800 (2018) 1090 (2017) 5560 1090 1740 5180 9770 10800
2020-03-21 05:00 8.72 14800 10800 (2018) 1090 (2017) 5560 1090 1740 5180 9770 10800
2020-03-21 04:00 9.20 16100 10800 (2018) 1090 (2017) 5560 1090 1740 5180 9770 10800
2020-03-21 03:00 9.74 17700 10800 (2018) 1090 (2017) 5560 1090 1740 5180 9770 10800
2020-03-21 02:00 10.34 19500 10800 (2018) 1090 (2017) 5560 1090 1740 5180 9770 10800
2020-03-21 01:00 10.98 21200 10800 (2018) 1090 (2017) 5560 1090 1740 5180 9770 10800
2020-03-21 00:00 11.64 23000 10800 (2018) 1090 (2017) 5560 1090 1740 5180 9770 10800
2020-03-20 23:00 12.26 24700 7820 (2019) 1260 (2017) 4240 1260 1880 3950 6910 7820
2020-03-20 22:00 12.56 25600 7820 (2019) 1260 (2017) 4240 1260 1880 3950 6910 7820
2020-03-20 21:00 12.85 26400 7820 (2019) 1260 (2017) 4240 1260 1880 3950 6910 7820
2020-03-20 20:00 13.18 27400 7820 (2019) 1260 (2017) 4240 1260 1880 3950 6910 7820
2020-03-20 19:00 13.53 28400 7820 (2019) 1260 (2017) 4240 1260 1880 3950 6910 7820
2020-03-20 18:00 13.95 29600 7820 (2019) 1260 (2017) 4240 1260 1880 3950 6910 7820
2020-03-20 17:00 14.45 31100 7820 (2019) 1260 (2017) 4240 1260 1880 3950 6910 7820
2020-03-20 16:00 15.05 33000 7820 (2019) 1260 (2017) 4240 1260 1880 3950 6910 7820
2020-03-20 15:00 15.48 34300 7820 (2019) 1260 (2017) 4240 1260 1880 3950 6910 7820
2020-03-20 14:00 15.89 35600 7820 (2019) 1260 (2017) 4240 1260 1880 3950 6910 7820
2020-03-20 13:00 16.38 37200 7820 (2019) 1260 (2017) 4240 1260 1880 3950 6910 7820
2020-03-20 12:00 16.76 38400 7820 (2019) 1260 (2017) 4240 1260 1880 3950 6910 7820
2020-03-20 11:00 17.10 39600 7820 (2019) 1260 (2017) 4240 1260 1880 3950 6910 7820
2020-03-20 10:00 17.29 40200 7820 (2019) 1260 (2017) 4240 1260 1880 3950 6910 7820
2020-03-20 09:00 17.32 40300 7820 (2019) 1260 (2017) 4240 1260 1880 3950 6910 7820
2020-03-20 08:00 17.38 40600 7820 (2019) 1260 (2017) 4240 1260 1880 3950 6910 7820
2020-03-20 07:00 17.45 40800 7820 (2019) 1260 (2017) 4240 1260 1880 3950 6910 7820
2020-03-20 06:00 17.53 41100 7820 (2019) 1260 (2017) 4240 1260 1880 3950 6910 7820
2020-03-20 05:00 17.55 41200 7820 (2019) 1260 (2017) 4240 1260 1880 3950 6910 7820
2020-03-20 04:00 17.61 41400 7820 (2019) 1260 (2017) 4240 1260 1880 3950 6910 7820
2020-03-20 03:00 17.61 41400 7820 (2019) 1260 (2017) 4240 1260 1880 3950 6910 7820
2020-03-20 02:00 17.68 41600 7820 (2019) 1260 (2017) 4240 1260 1880 3950 6910 7820
2020-03-20 01:00 17.70 41700 7820 (2019) 1260 (2017) 4240 1260 1880 3950 6910 7820
2020-03-20 00:00 17.74 41800 7820 (2019) 1260 (2017) 4240 1260 1880 3950 6910 7820
2020-03-19 23:00 17.78 42000 8970 (2019) 1020 (2017) 4510 1020 1760 4030 7740 8970
2020-03-19 22:00 17.84 42200 8970 (2019) 1020 (2017) 4510 1020 1760 4030 7740 8970
2020-03-19 21:00 17.83 42100 8970 (2019) 1020 (2017) 4510 1020 1760 4030 7740 8970
2020-03-19 20:00 17.88 42300 8970 (2019) 1020 (2017) 4510 1020 1760 4030 7740 8970
2020-03-19 19:00 17.96 42600 8970 (2019) 1020 (2017) 4510 1020 1760 4030 7740 8970
2020-03-19 18:00 18.00 42800 8970 (2019) 1020 (2017) 4510 1020 1760 4030 7740 8970
2020-03-19 17:00 18.05 42900 8970 (2019) 1020 (2017) 4510 1020 1760 4030 7740 8970
2020-03-19 16:00 18.08 43000 8970 (2019) 1020 (2017) 4510 1020 1760 4030 7740 8970
2020-03-19 15:00 18.10 43100 8970 (2019) 1020 (2017) 4510 1020 1760 4030 7740 8970
2020-03-19 14:00 18.09 43100 8970 (2019) 1020 (2017) 4510 1020 1760 4030 7740 8970
2020-03-19 13:00 18.00 42800 8970 (2019) 1020 (2017) 4510 1020 1760 4030 7740 8970
2020-03-19 12:00 17.81 42100 8970 (2019) 1020 (2017) 4510 1020 1760 4030 7740 8970
2020-03-19 11:00 17.53 41100 8970 (2019) 1020 (2017) 4510 1020 1760 4030 7740 8970
2020-03-19 10:00 17.23 40000 8970 (2019) 1020 (2017) 4510 1020 1760 4030 7740 8970
2020-03-19 09:00 16.95 39100 8970 (2019) 1020 (2017) 4510 1020 1760 4030 7740 8970
2020-03-19 08:00 16.81 38600 8970 (2019) 1020 (2017) 4510 1020 1760 4030 7740 8970
2020-03-19 07:00 16.75 38400 8970 (2019) 1020 (2017) 4510 1020 1760 4030 7740 8970
2020-03-19 06:00 16.73 38300 8970 (2019) 1020 (2017) 4510 1020 1760 4030 7740 8970
2020-03-19 05:00 16.72 38300 8970 (2019) 1020 (2017) 4510 1020 1760 4030 7740 8970
2020-03-19 04:00 16.69 38200 8970 (2019) 1020 (2017) 4510 1020 1760 4030 7740 8970
2020-03-19 03:00 16.67 38100 8970 (2019) 1020 (2017) 4510 1020 1760 4030 7740 8970
2020-03-19 02:00 16.69 38200 8970 (2019) 1020 (2017) 4510 1020 1760 4030 7740 8970
2020-03-19 01:00 16.69 38200 8970 (2019) 1020 (2017) 4510 1020 1760 4030 7740 8970
2020-03-19 00:00 16.67 38100 8970 (2019) 1020 (2017) 4510 1020 1760 4030 7740 8970
2020-03-18 23:00 16.66 38100 9450 (2019) 1060 (2017) 4600 1060 1730 3940 8110 9450
2020-03-18 22:00 16.67 38100 9450 (2019) 1060 (2017) 4600 1060 1730 3940 8110 9450
2020-03-18 21:00 16.67 38100 9450 (2019) 1060 (2017) 4600 1060 1730 3940 8110 9450
2020-03-18 20:00 16.68 38100 9450 (2019) 1060 (2017) 4600 1060 1730 3940 8110 9450
2020-03-18 19:00 16.68 38100 9450 (2019) 1060 (2017) 4600 1060 1730 3940 8110 9450
2020-03-18 18:00 16.62 37900 9450 (2019) 1060 (2017) 4600 1060 1730 3940 8110 9450
2020-03-18 17:00 16.65 38000 9450 (2019) 1060 (2017) 4600 1060 1730 3940 8110 9450
2020-03-18 16:00 16.66 38100 9450 (2019) 1060 (2017) 4600 1060 1730 3940 8110 9450
2020-03-18 15:00 16.67 38100 9450 (2019) 1060 (2017) 4600 1060 1730 3940 8110 9450
2020-03-18 14:00 16.63 38000 9450 (2019) 1060 (2017) 4600 1060 1730 3940 8110 9450
2020-03-18 13:00 16.65 38000 9450 (2019) 1060 (2017) 4600 1060 1730 3940 8110 9450
2020-03-18 12:00 16.64 38000 9450 (2019) 1060 (2017) 4600 1060 1730 3940 8110 9450
2020-03-18 11:00 16.63 38000 9450 (2019) 1060 (2017) 4600 1060 1730 3940 8110 9450
2020-03-18 10:00 16.63 38000 9450 (2019) 1060 (2017) 4600 1060 1730 3940 8110 9450
2020-03-18 09:00 16.64 38000 9450 (2019) 1060 (2017) 4600 1060 1730 3940 8110 9450
2020-03-18 08:00 16.62 37900 9450 (2019) 1060 (2017) 4600 1060 1730 3940 8110 9450
2020-03-18 07:00 16.65 38000 9450 (2019) 1060 (2017) 4600 1060 1730 3940 8110 9450
2020-03-18 06:00 16.65 38000 9450 (2019) 1060 (2017) 4600 1060 1730 3940 8110 9450
2020-03-18 05:00 16.65 38000 9450 (2019) 1060 (2017) 4600 1060 1730 3940 8110 9450
2020-03-18 04:00 16.63 38000 9450 (2019) 1060 (2017) 4600 1060 1730 3940 8110 9450
2020-03-18 03:00 16.61 37900 9450 (2019) 1060 (2017) 4600 1060 1730 3940 8110 9450
2020-03-18 02:00 16.61 37900 9450 (2019) 1060 (2017) 4600 1060 1730 3940 8110 9450
2020-03-18 01:00 16.64 38000 9450 (2019) 1060 (2017) 4600 1060 1730 3940 8110 9450
2020-03-18 00:00 16.60 37900 9450 (2019) 1060 (2017) 4600 1060 1730 3940 8110 9450
2020-03-17 23:00 16.58 37800 9790 (2019) 1840 (2017) 4790 1840 2320 3770 8290 9790
2020-03-17 22:00 16.56 37700 9790 (2019) 1840 (2017) 4790 1840 2320 3770 8290 9790
2020-03-17 21:00 16.54 37700 9790 (2019) 1840 (2017) 4790 1840 2320 3770 8290 9790
2020-03-17 20:00 16.56 37700 9790 (2019) 1840 (2017) 4790 1840 2320 3770 8290 9790
2020-03-17 19:00 16.53 37600 9790 (2019) 1840 (2017) 4790 1840 2320 3770 8290 9790
2020-03-17 18:00 16.52 37600 9790 (2019) 1840 (2017) 4790 1840 2320 3770 8290 9790
2020-03-17 17:00 16.48 37500 9790 (2019) 1840 (2017) 4790 1840 2320 3770 8290 9790
2020-03-17 16:00 16.44 37400 9790 (2019) 1840 (2017) 4790 1840 2320 3770 8290 9790
2020-03-17 15:00 16.41 37300 9790 (2019) 1840 (2017) 4790 1840 2320 3770 8290 9790
2020-03-17 14:00 16.40 37200 9790 (2019) 1840 (2017) 4790 1840 2320 3770 8290 9790
2020-03-17 13:00 16.33 37000 9790 (2019) 1840 (2017) 4790 1840 2320 3770 8290 9790
2020-03-17 12:00 16.30 36900 9790 (2019) 1840 (2017) 4790 1840 2320 3770 8290 9790
2020-03-17 11:00 16.25 36800 9790 (2019) 1840 (2017) 4790 1840 2320 3770 8290 9790
2020-03-17 10:00 16.18 36500 9790 (2019) 1840 (2017) 4790 1840 2320 3770 8290 9790
2020-03-17 09:00 16.10 36300 9790 (2019) 1840 (2017) 4790 1840 2320 3770 8290 9790
2020-03-17 08:00 16.06 36100 9790 (2019) 1840 (2017) 4790 1840 2320 3770 8290 9790
2020-03-17 07:00 15.98 35900 9790 (2019) 1840 (2017) 4790 1840 2320 3770 8290 9790
2020-03-17 06:00 15.89 35600 9790 (2019) 1840 (2017) 4790 1840 2320 3770 8290 9790
2020-03-17 05:00 15.84 35400 9790 (2019) 1840 (2017) 4790 1840 2320 3770 8290 9790
2020-03-17 04:00 15.71 35000 9790 (2019) 1840 (2017) 4790 1840 2320 3770 8290 9790
2020-03-17 03:00 15.61 34700 9790 (2019) 1840 (2017) 4790 1840 2320 3770 8290 9790
2020-03-17 02:00 15.53 34500 9790 (2019) 1840 (2017) 4790 1840 2320 3770 8290 9790
2020-03-17 01:00 15.51 34400 9790 (2019) 1840 (2017) 4790 1840 2320 3770 8290 9790
2020-03-17 00:00 15.87 35500 9790 (2019) 1840 (2017) 4790 1840 2320 3770 8290 9790
2020-03-16 23:00 16.07 36200 15000 (2019) 2190 (2017) 6210 2190 2590 3830 12200 15000
2020-03-16 22:00 16.14 36400 15000 (2019) 2190 (2017) 6210 2190 2590 3830 12200 15000
2020-03-16 21:00 16.09 36200 15000 (2019) 2190 (2017) 6210 2190 2590 3830 12200 15000
2020-03-16 20:00 16.07 36200 15000 (2019) 2190 (2017) 6210 2190 2590 3830 12200 15000
2020-03-16 19:00 16.01 36000 15000 (2019) 2190 (2017) 6210 2190 2590 3830 12200 15000
2020-03-16 18:00 15.93 35700 15000 (2019) 2190 (2017) 6210 2190 2590 3830 12200 15000
2020-03-16 17:00 15.90 35600 15000 (2019) 2190 (2017) 6210 2190 2590 3830 12200 15000
2020-03-16 16:00 15.80 35300 15000 (2019) 2190 (2017) 6210 2190 2590 3830 12200 15000
2020-03-16 15:00 15.71 35000 15000 (2019) 2190 (2017) 6210 2190 2590 3830 12200 15000
2020-03-16 14:00 15.63 34800 15000 (2019) 2190 (2017) 6210 2190 2590 3830 12200 15000
2020-03-16 13:00 15.44 34200 15000 (2019) 2190 (2017) 6210 2190 2590 3830 12200 15000
2020-03-16 12:00 15.31 33800 15000 (2019) 2190 (2017) 6210 2190 2590 3830 12200 15000
2020-03-16 11:00 15.10 33100 15000 (2019) 2190 (2017) 6210 2190 2590 3830 12200 15000
2020-03-16 10:00 14.84 32300 15000 (2019) 2190 (2017) 6210 2190 2590 3830 12200 15000
2020-03-16 09:00 14.60 31600 15000 (2019) 2190 (2017) 6210 2190 2590 3830 12200 15000
2020-03-16 08:00 14.25 30500 15000 (2019) 2190 (2017) 6210 2190 2590 3830 12200 15000
2020-03-16 07:00 13.97 29700 15000 (2019) 2190 (2017) 6210 2190 2590 3830 12200 15000
2020-03-16 06:00 13.82 29200 15000 (2019) 2190 (2017) 6210 2190 2590 3830 12200 15000
2020-03-16 05:00 14.22 30400 15000 (2019) 2190 (2017) 6210 2190 2590 3830 12200 15000
2020-03-16 04:00 14.52 31400 15000 (2019) 2190 (2017) 6210 2190 2590 3830 12200 15000
2020-03-16 02:00 15.27 33700 15000 (2019) 2190 (2017) 6210 2190 2590 3830 12200 15000
2020-03-16 01:00 15.57 34600 15000 (2019) 2190 (2017) 6210 2190 2590 3830 12200 15000
2020-03-16 00:00 15.49 34300 15000 (2019) 2190 (2017) 6210 2190 2590 3830 12200 15000
2020-03-15 23:00 15.45 34200 24800 (2019) 3460 (2017) 9060 3460 3530 4000 19700 24800
2020-03-15 22:00 15.28 33700 24800 (2019) 3460 (2017) 9060 3460 3530 4000 19700 24800
2020-03-15 21:00 15.13 33200 24800 (2019) 3460 (2017) 9060 3460 3530 4000 19700 24800
2020-03-15 20:00 15.03 32900 24800 (2019) 3460 (2017) 9060 3460 3530 4000 19700 24800
2020-03-15 19:00 15.07 33000 24800 (2019) 3460 (2017) 9060 3460 3530 4000 19700 24800
2020-03-15 18:00 15.28 33700 24800 (2019) 3460 (2017) 9060 3460 3530 4000 19700 24800
2020-03-15 17:00 15.28 33700 24800 (2019) 3460 (2017) 9060 3460 3530 4000 19700 24800
2020-03-15 16:00 15.18 33400 24800 (2019) 3460 (2017) 9060 3460 3530 4000 19700 24800
2020-03-15 15:00 15.01 32900 24800 (2019) 3460 (2017) 9060 3460 3530 4000 19700 24800
2020-03-15 14:00 14.87 32400 24800 (2019) 3460 (2017) 9060 3460 3530 4000 19700 24800
2020-03-15 13:00 14.85 32400 24800 (2019) 3460 (2017) 9060 3460 3530 4000 19700 24800
2020-03-15 12:00 14.75 32100 24800 (2019) 3460 (2017) 9060 3460 3530 4000 19700 24800
2020-03-15 11:00 14.83 32300 24800 (2019) 3460 (2017) 9060 3460 3530 4000 19700 24800
2020-03-15 10:00 14.82 32300 24800 (2019) 3460 (2017) 9060 3460 3530 4000 19700 24800
2020-03-15 09:00 14.76 32100 24800 (2019) 3460 (2017) 9060 3460 3530 4000 19700 24800
2020-03-15 08:00 15.08 33100 24800 (2019) 3460 (2017) 9060 3460 3530 4000 19700 24800
2020-03-15 07:00 15.35 33900 24800 (2019) 3460 (2017) 9060 3460 3530 4000 19700 24800
2020-03-15 06:00 15.22 33500 24800 (2019) 3460 (2017) 9060 3460 3530 4000 19700 24800
2020-03-15 05:00 14.99 32800 24800 (2019) 3460 (2017) 9060 3460 3530 4000 19700 24800
2020-03-15 04:00 14.66 31800 24800 (2019) 3460 (2017) 9060 3460 3530 4000 19700 24800
2020-03-15 03:00 14.37 30900 24800 (2019) 3460 (2017) 9060 3460 3530 4000 19700 24800
2020-03-15 02:00 14.08 30000 24800 (2019) 3460 (2017) 9060 3460 3530 4000 19700 24800
2020-03-15 01:00 14.01 29800 24800 (2019) 3460 (2017) 9060 3460 3530 4000 19700 24800
2020-03-15 00:00 14.09 30100 24800 (2019) 3460 (2017) 9060 3460 3530 4000 19700 24800
2020-03-14 23:00 13.99 29800 23300 (2019) 1810 (2016) 9990 1810 2570 7420 20000 23300
2020-03-14 22:00 13.83 29300 23300 (2019) 1810 (2016) 9990 1810 2570 7420 20000 23300
2020-03-14 21:00 13.60 28600 23300 (2019) 1810 (2016) 9990 1810 2570 7420 20000 23300
2020-03-14 20:00 13.42 28100 23300 (2019) 1810 (2016) 9990 1810 2570 7420 20000 23300
2020-03-14 19:00 13.68 28800 23300 (2019) 1810 (2016) 9990 1810 2570 7420 20000 23300
2020-03-14 18:00 13.97 29700 23300 (2019) 1810 (2016) 9990 1810 2570 7420 20000 23300
2020-03-14 17:00 14.04 29900 23300 (2019) 1810 (2016) 9990 1810 2570 7420 20000 23300
2020-03-14 16:00 14.02 29800 23300 (2019) 1810 (2016) 9990 1810 2570 7420 20000 23300
2020-03-14 15:00 14.19 30400 23300 (2019) 1810 (2016) 9990 1810 2570 7420 20000 23300
2020-03-14 14:00 14.18 30300 23300 (2019) 1810 (2016) 9990 1810 2570 7420 20000 23300
2020-03-14 13:00 14.25 30500 23300 (2019) 1810 (2016) 9990 1810 2570 7420 20000 23300
2020-03-14 12:00 14.05 29900 23300 (2019) 1810 (2016) 9990 1810 2570 7420 20000 23300
2020-03-14 11:00 13.52 28400 23300 (2019) 1810 (2016) 9990 1810 2570 7420 20000 23300
2020-03-14 10:00 12.93 26600 23300 (2019) 1810 (2016) 9990 1810 2570 7420 20000 23300
2020-03-14 09:00 12.16 24400 23300 (2019) 1810 (2016) 9990 1810 2570 7420 20000 23300
2020-03-14 08:00 11.54 22700 23300 (2019) 1810 (2016) 9990 1810 2570 7420 20000 23300
2020-03-14 07:00 11.25 21900 23300 (2019) 1810 (2016) 9990 1810 2570 7420 20000 23300
2020-03-14 06:00 11.09 21500 23300 (2019) 1810 (2016) 9990 1810 2570 7420 20000 23300
2020-03-14 05:00 11.49 22600 23300 (2019) 1810 (2016) 9990 1810 2570 7420 20000 23300
2020-03-14 04:00 12.25 24700 23300 (2019) 1810 (2016) 9990 1810 2570 7420 20000 23300
2020-03-14 03:00 13.11 27200 23300 (2019) 1810 (2016) 9990 1810 2570 7420 20000 23300
2020-03-14 02:00 13.97 29700 23300 (2019) 1810 (2016) 9990 1810 2570 7420 20000 23300
2020-03-14 01:00 14.65 31800 23300 (2019) 1810 (2016) 9990 1810 2570 7420 20000 23300
2020-03-14 00:00 14.36 30900 23300 (2019) 1810 (2016) 9990 1810 2570 7420 20000 23300
2020-03-13 23:00 13.91 29500 22100 (2019) 1450 (2016) 10300 1450 2220 8760 19800 22100
2020-03-13 22:00 13.38 27900 22100 (2019) 1450 (2016) 10300 1450 2220 8760 19800 22100
2020-03-13 21:00 12.81 26300 22100 (2019) 1450 (2016) 10300 1450 2220 8760 19800 22100
2020-03-13 20:00 12.45 25300 22100 (2019) 1450 (2016) 10300 1450 2220 8760 19800 22100
2020-03-13 19:00 12.20 24500 22100 (2019) 1450 (2016) 10300 1450 2220 8760 19800 22100
2020-03-13 18:00 12.12 24300 22100 (2019) 1450 (2016) 10300 1450 2220 8760 19800 22100
2020-03-13 17:00 12.04 24100 22100 (2019) 1450 (2016) 10300 1450 2220 8760 19800 22100
2020-03-13 16:00 11.96 23900 22100 (2019) 1450 (2016) 10300 1450 2220 8760 19800 22100
2020-03-13 15:00 11.86 23600 22100 (2019) 1450 (2016) 10300 1450 2220 8760 19800 22100
2020-03-13 14:00 11.77 23300 22100 (2019) 1450 (2016) 10300 1450 2220 8760 19800 22100
2020-03-13 13:00 11.60 22900 22100 (2019) 1450 (2016) 10300 1450 2220 8760 19800 22100
2020-03-13 12:00 11.39 22300 22100 (2019) 1450 (2016) 10300 1450 2220 8760 19800 22100
2020-03-13 11:00 11.09 21500 22100 (2019) 1450 (2016) 10300 1450 2220 8760 19800 22100
2020-03-13 10:00 10.72 20500 22100 (2019) 1450 (2016) 10300 1450 2220 8760 19800 22100
2020-03-13 09:00 10.27 19300 22100 (2019) 1450 (2016) 10300 1450 2220 8760 19800 22100
2020-03-13 08:00 9.85 18000 22100 (2019) 1450 (2016) 10300 1450 2220 8760 19800 22100
2020-03-13 07:00 9.58 17200 22100 (2019) 1450 (2016) 10300 1450 2220 8760 19800 22100
2020-03-13 06:00 9.72 17600 22100 (2019) 1450 (2016) 10300 1450 2220 8760 19800 22100
2020-03-13 05:00 10.20 19100 22100 (2019) 1450 (2016) 10300 1450 2220 8760 19800 22100
2020-03-13 04:00 10.77 20600 22100 (2019) 1450 (2016) 10300 1450 2220 8760 19800 22100
2020-03-13 03:00 11.46 22500 22100 (2019) 1450 (2016) 10300 1450 2220 8760 19800 22100
2020-03-13 02:00 12.12 24300 22100 (2019) 1450 (2016) 10300 1450 2220 8760 19800 22100
2020-03-13 01:00 12.82 26300 22100 (2019) 1450 (2016) 10300 1450 2220 8760 19800 22100
2020-03-13 00:00 13.41 28000 22100 (2019) 1450 (2016) 10300 1450 2220 8760 19800 22100
2020-03-12 23:00 13.63 28700 16400 (2019) 986 (2017) 7980 986 1550 7270 15100 16400
2020-03-12 22:00 13.62 28700 16400 (2019) 986 (2017) 7980 986 1550 7270 15100 16400
2020-03-12 21:00 13.58 28500 16400 (2019) 986 (2017) 7980 986 1550 7270 15100 16400
2020-03-12 20:00 13.51 28300 16400 (2019) 986 (2017) 7980 986 1550 7270 15100 16400
2020-03-12 19:00 13.46 28200 16400 (2019) 986 (2017) 7980 986 1550 7270 15100 16400
2020-03-12 18:00 13.36 27900 16400 (2019) 986 (2017) 7980 986 1550 7270 15100 16400
2020-03-12 17:00 13.25 27600 16400 (2019) 986 (2017) 7980 986 1550 7270 15100 16400
2020-03-12 16:00 13.11 27200 16400 (2019) 986 (2017) 7980 986 1550 7270 15100 16400
2020-03-12 15:00 12.94 26700 16400 (2019) 986 (2017) 7980 986 1550 7270 15100 16400
2020-03-12 14:00 12.71 26000 16400 (2019) 986 (2017) 7980 986 1550 7270 15100 16400
2020-03-12 13:00 12.42 25200 16400 (2019) 986 (2017) 7980 986 1550 7270 15100 16400
2020-03-12 12:00 12.05 24100 16400 (2019) 986 (2017) 7980 986 1550 7270 15100 16400
2020-03-12 11:00 11.55 22700 16400 (2019) 986 (2017) 7980 986 1550 7270 15100 16400
2020-03-12 10:00 10.94 21100 16400 (2019) 986 (2017) 7980 986 1550 7270 15100 16400
2020-03-12 09:00 10.19 19100 16400 (2019) 986 (2017) 7980 986 1550 7270 15100 16400
2020-03-12 08:00 9.53 17100 16400 (2019) 986 (2017) 7980 986 1550 7270 15100 16400
2020-03-12 07:00 9.25 16300 16400 (2019) 986 (2017) 7980 986 1550 7270 15100 16400
2020-03-12 06:00 9.40 16700 16400 (2019) 986 (2017) 7980 986 1550 7270 15100 16400
2020-03-12 05:00 9.62 17300 16400 (2019) 986 (2017) 7980 986 1550 7270 15100 16400
2020-03-12 04:00 10.02 18500 16400 (2019) 986 (2017) 7980 986 1550 7270 15100 16400
2020-03-12 03:00 10.40 19600 16400 (2019) 986 (2017) 7980 986 1550 7270 15100 16400
2020-03-12 02:00 10.49 19900 16400 (2019) 986 (2017) 7980 986 1550 7270 15100 16400
2020-03-12 01:00 10.45 19800 16400 (2019) 986 (2017) 7980 986 1550 7270 15100 16400
2020-03-12 00:00 10.59 20100 16400 (2019) 986 (2017) 7980 986 1550 7270 15100 16400
2020-03-11 23:00 10.64 20300 15700 (2019) 1120 (2017) 7150 1120 1830 5900 13700 15700
2020-03-11 22:00 10.74 20500 15700 (2019) 1120 (2017) 7150 1120 1830 5900 13700 15700
2020-03-11 21:00 10.96 21100 15700 (2019) 1120 (2017) 7150 1120 1830 5900 13700 15700
2020-03-11 20:00 11.21 21800 15700 (2019) 1120 (2017) 7150 1120 1830 5900 13700 15700
2020-03-11 19:00 11.28 22000 15700 (2019) 1120 (2017) 7150 1120 1830 5900 13700 15700
2020-03-11 18:00 11.34 22200 15700 (2019) 1120 (2017) 7150 1120 1830 5900 13700 15700
2020-03-11 17:00 11.44 22400 15700 (2019) 1120 (2017) 7150 1120 1830 5900 13700 15700
2020-03-11 16:00 11.59 22800 15700 (2019) 1120 (2017) 7150 1120 1830 5900 13700 15700
2020-03-11 15:00 11.75 23300 15700 (2019) 1120 (2017) 7150 1120 1830 5900 13700 15700
2020-03-11 14:00 11.94 23800 15700 (2019) 1120 (2017) 7150 1120 1830 5900 13700 15700
2020-03-11 13:00 12.19 24500 15700 (2019) 1120 (2017) 7150 1120 1830 5900 13700 15700
2020-03-11 12:00 12.30 24800 15700 (2019) 1120 (2017) 7150 1120 1830 5900 13700 15700
2020-03-11 11:00 11.92 23800 15700 (2019) 1120 (2017) 7150 1120 1830 5900 13700 15700
2020-03-11 10:00 11.46 22500 15700 (2019) 1120 (2017) 7150 1120 1830 5900 13700 15700
2020-03-11 09:00 10.86 20800 15700 (2019) 1120 (2017) 7150 1120 1830 5900 13700 15700
2020-03-11 08:00 10.30 19400 15700 (2019) 1120 (2017) 7150 1120 1830 5900 13700 15700
2020-03-11 07:00 10.05 18600 15700 (2019) 1120 (2017) 7150 1120 1830 5900 13700 15700
2020-03-11 06:00 10.19 19100 15700 (2019) 1120 (2017) 7150 1120 1830 5900 13700 15700
2020-03-11 05:00 10.35 19500 15700 (2019) 1120 (2017) 7150 1120 1830 5900 13700 15700
2020-03-11 04:00 10.52 19900 15700 (2019) 1120 (2017) 7150 1120 1830 5900 13700 15700
2020-03-11 03:00 11.00 21200 15700 (2019) 1120 (2017) 7150 1120 1830 5900 13700 15700
2020-03-11 02:00 11.37 22200 15700 (2019) 1120 (2017) 7150 1120 1830 5900 13700 15700
2020-03-11 01:00 11.53 22700 15700 (2019) 1120 (2017) 7150 1120 1830 5900 13700 15700
2020-03-11 00:00 11.55 22700 15700 (2019) 1120 (2017) 7150 1120 1830 5900 13700 15700
2020-03-10 23:00 11.65 23000 12200 (2018) 1060 (2017) 6300 1060 2020 5980 10900 12200
2020-03-10 22:00 11.66 23000 12200 (2018) 1060 (2017) 6300 1060 2020 5980 10900 12200
2020-03-10 21:00 11.65 23000 12200 (2018) 1060 (2017) 6300 1060 2020 5980 10900 12200
2020-03-10 20:00 11.35 22200 12200 (2018) 1060 (2017) 6300 1060 2020 5980 10900 12200
2020-03-10 19:00 11.27 22000 12200 (2018) 1060 (2017) 6300 1060 2020 5980 10900 12200
2020-03-10 18:00 11.32 22100 12200 (2018) 1060 (2017) 6300 1060 2020 5980 10900 12200
2020-03-10 17:00 11.38 22300 12200 (2018) 1060 (2017) 6300 1060 2020 5980 10900 12200
2020-03-10 16:00 11.44 22400 12200 (2018) 1060 (2017) 6300 1060 2020 5980 10900 12200
2020-03-10 15:00 11.52 22600 12200 (2018) 1060 (2017) 6300 1060 2020 5980 10900 12200
2020-03-10 14:00 11.55 22700 12200 (2018) 1060 (2017) 6300 1060 2020 5980 10900 12200
2020-03-10 13:00 11.70 23100 12200 (2018) 1060 (2017) 6300 1060 2020 5980 10900 12200
2020-03-10 12:00 11.84 23500 12200 (2018) 1060 (2017) 6300 1060 2020 5980 10900 12200
2020-03-10 11:00 11.79 23400 12200 (2018) 1060 (2017) 6300 1060 2020 5980 10900 12200
2020-03-10 10:00 11.49 22600 12200 (2018) 1060 (2017) 6300 1060 2020 5980 10900 12200
2020-03-10 09:00 11.03 21300 12200 (2018) 1060 (2017) 6300 1060 2020 5980 10900 12200
2020-03-10 08:00 10.69 20400 12200 (2018) 1060 (2017) 6300 1060 2020 5980 10900 12200
2020-03-10 07:00 10.49 19900 12200 (2018) 1060 (2017) 6300 1060 2020 5980 10900 12200
2020-03-10 06:00 10.66 20300 12200 (2018) 1060 (2017) 6300 1060 2020 5980 10900 12200
2020-03-10 05:00 11.06 21400 12200 (2018) 1060 (2017) 6300 1060 2020 5980 10900 12200
2020-03-10 04:00 11.63 22900 12200 (2018) 1060 (2017) 6300 1060 2020 5980 10900 12200
2020-03-10 03:00 12.28 24800 12200 (2018) 1060 (2017) 6300 1060 2020 5980 10900 12200
2020-03-10 02:00 12.85 26400 12200 (2018) 1060 (2017) 6300 1060 2020 5980 10900 12200
2020-03-10 01:00 13.35 27900 12200 (2018) 1060 (2017) 6300 1060 2020 5980 10900 12200
2020-03-10 00:00 13.67 28800 12200 (2018) 1060 (2017) 6300 1060 2020 5980 10900 12200
2020-03-09 23:00 13.67 28800 19800 (2018) 1130 (2017) 11100 1130 3230 11700 18300 19800
2020-03-09 22:00 13.70 28900 19800 (2018) 1130 (2017) 11100 1130 3230 11700 18300 19800
2020-03-09 21:00 13.64 28700 19800 (2018) 1130 (2017) 11100 1130 3230 11700 18300 19800
2020-03-09 20:00 13.62 28700 19800 (2018) 1130 (2017) 11100 1130 3230 11700 18300 19800
2020-03-09 19:00 13.59 28600 19800 (2018) 1130 (2017) 11100 1130 3230 11700 18300 19800
2020-03-09 18:00 13.57 28500 19800 (2018) 1130 (2017) 11100 1130 3230 11700 18300 19800
2020-03-09 17:00 13.54 28400 19800 (2018) 1130 (2017) 11100 1130 3230 11700 18300 19800
2020-03-09 16:00 13.49 28300 19800 (2018) 1130 (2017) 11100 1130 3230 11700 18300 19800
2020-03-09 15:00 13.45 28200 19800 (2018) 1130 (2017) 11100 1130 3230 11700 18300 19800
2020-03-09 14:00 13.38 27900 19800 (2018) 1130 (2017) 11100 1130 3230 11700 18300 19800
2020-03-09 13:00 13.30 27700 19800 (2018) 1130 (2017) 11100 1130 3230 11700 18300 19800
2020-03-09 12:00 13.19 27400 19800 (2018) 1130 (2017) 11100 1130 3230 11700 18300 19800
2020-03-09 11:00 13.08 27100 19800 (2018) 1130 (2017) 11100 1130 3230 11700 18300 19800
2020-03-09 10:00 12.95 26700 19800 (2018) 1130 (2017) 11100 1130 3230 11700 18300 19800
2020-03-09 09:00 12.64 25800 19800 (2018) 1130 (2017) 11100 1130 3230 11700 18300 19800
2020-03-09 08:00 12.28 24800 19800 (2018) 1130 (2017) 11100 1130 3230 11700 18300 19800
2020-03-09 07:00 11.79 23400 19800 (2018) 1130 (2017) 11100 1130 3230 11700 18300 19800
2020-03-09 06:00 11.84 23500 19800 (2018) 1130 (2017) 11100 1130 3230 11700 18300 19800
2020-03-09 05:00 12.23 24600 19800 (2018) 1130 (2017) 11100 1130 3230 11700 18300 19800
2020-03-09 04:00 12.87 26500 19800 (2018) 1130 (2017) 11100 1130 3230 11700 18300 19800
2020-03-09 03:00 13.47 28200 19800 (2018) 1130 (2017) 11100 1130 3230 11700 18300 19800
2020-03-09 02:00 14.05 29900 19800 (2018) 1130 (2017) 11100 1130 3230 11700 18300 19800
2020-03-09 01:00 14.41 31000 19800 (2018) 1130 (2017) 11100 1130 3230 11700 18300 19800
2020-03-09 00:00 14.63 31700 19800 (2018) 1130 (2017) 11100 1130 3230 11700 18300 19800
2020-03-08 23:00 14.75 32100 23000 (2016) 1030 (2017) 15200 1030 4670 18300 22500 23000
2020-03-08 22:00 14.56 31500 23000 (2016) 1030 (2017) 15200 1030 4670 18300 22500 23000
2020-03-08 21:00 14.39 31000 23000 (2016) 1030 (2017) 15200 1030 4670 18300 22500 23000
2020-03-08 20:00 14.27 30600 23000 (2016) 1030 (2017) 15200 1030 4670 18300 22500 23000
2020-03-08 19:00 14.01 29800 23000 (2016) 1030 (2017) 15200 1030 4670 18300 22500 23000
2020-03-08 18:00 13.88 29400 23000 (2016) 1030 (2017) 15200 1030 4670 18300 22500 23000
2020-03-08 17:00 13.70 28900 23000 (2016) 1030 (2017) 15200 1030 4670 18300 22500 23000
2020-03-08 16:00 13.47 28200 23000 (2016) 1030 (2017) 15200 1030 4670 18300 22500 23000
2020-03-08 15:00 13.32 27800 23000 (2016) 1030 (2017) 15200 1030 4670 18300 22500 23000
2020-03-08 14:00 13.12 27200 23000 (2016) 1030 (2017) 15200 1030 4670 18300 22500 23000
2020-03-08 13:00 12.99 26800 23000 (2016) 1030 (2017) 15200 1030 4670 18300 22500 23000
2020-03-08 12:00 12.69 25900 23000 (2016) 1030 (2017) 15200 1030 4670 18300 22500 23000
2020-03-08 11:00 12.24 24700 23000 (2016) 1030 (2017) 15200 1030 4670 18300 22500 23000
2020-03-08 10:00 11.72 23200 23000 (2016) 1030 (2017) 15200 1030 4670 18300 22500 23000
2020-03-08 09:00 11.38 22300 23000 (2016) 1030 (2017) 15200 1030 4670 18300 22500 23000
2020-03-08 08:00 11.08 21400 23000 (2016) 1030 (2017) 15200 1030 4670 18300 22500 23000
2020-03-08 07:00 10.83 20800 23000 (2016) 1030 (2017) 15200 1030 4670 18300 22500 23000
2020-03-08 06:00 11.04 21300 23000 (2016) 1030 (2017) 15200 1030 4670 18300 22500 23000
2020-03-08 05:00 11.41 22300 23000 (2016) 1030 (2017) 15200 1030 4670 18300 22500 23000
2020-03-08 04:00 11.84 23500 23000 (2016) 1030 (2017) 15200 1030 4670 18300 22500 23000
2020-03-08 03:00 12.27 24700 23000 (2016) 1030 (2017) 15200 1030 4670 18300 22500 23000
2020-03-08 01:00 12.71 26000 23000 (2016) 1030 (2017) 15200 1030 4670 18300 22500 23000
2020-03-08 00:00 13.15 27300 23000 (2016) 1030 (2017) 15200 1030 4670 18300 22500 23000
2020-03-07 23:00 13.41 28000 22700 (2018) 1330 (2017) 14800 1330 4450 17600 22400 22700
2020-03-07 22:00 13.49 28300 22700 (2018) 1330 (2017) 14800 1330 4450 17600 22400 22700
2020-03-07 21:00 13.71 28900 22700 (2018) 1330 (2017) 14800 1330 4450 17600 22400 22700
2020-03-07 20:00 13.74 29000 22700 (2018) 1330 (2017) 14800 1330 4450 17600 22400 22700
2020-03-07 19:00 13.38 27900 22700 (2018) 1330 (2017) 14800 1330 4450 17600 22400 22700
2020-03-07 18:00 13.09 27100 22700 (2018) 1330 (2017) 14800 1330 4450 17600 22400 22700
2020-03-07 17:00 12.94 26700 22700 (2018) 1330 (2017) 14800 1330 4450 17600 22400 22700
2020-03-07 16:00 12.66 25900 22700 (2018) 1330 (2017) 14800 1330 4450 17600 22400 22700
2020-03-07 15:00 12.54 25500 22700 (2018) 1330 (2017) 14800 1330 4450 17600 22400 22700
2020-03-07 14:00 12.38 25100 22700 (2018) 1330 (2017) 14800 1330 4450 17600 22400 22700
2020-03-07 13:00 12.33 24900 22700 (2018) 1330 (2017) 14800 1330 4450 17600 22400 22700
2020-03-07 12:00 12.24 24700 22700 (2018) 1330 (2017) 14800 1330 4450 17600 22400 22700
2020-03-07 11:00 12.07 24200 22700 (2018) 1330 (2017) 14800 1330 4450 17600 22400 22700
2020-03-07 10:00 12.06 24100 22700 (2018) 1330 (2017) 14800 1330 4450 17600 22400 22700
2020-03-07 09:00 12.10 24300 22700 (2018) 1330 (2017) 14800 1330 4450 17600 22400 22700
2020-03-07 08:00 12.12 24300 22700 (2018) 1330 (2017) 14800 1330 4450 17600 22400 22700
2020-03-07 07:00 12.18 24500 22700 (2018) 1330 (2017) 14800 1330 4450 17600 22400 22700
2020-03-07 06:00 12.09 24200 22700 (2018) 1330 (2017) 14800 1330 4450 17600 22400 22700
2020-03-07 05:00 12.02 24000 22700 (2018) 1330 (2017) 14800 1330 4450 17600 22400 22700
2020-03-07 04:00 12.14 24400 22700 (2018) 1330 (2017) 14800 1330 4450 17600 22400 22700
2020-03-07 03:00 12.36 25000 22700 (2018) 1330 (2017) 14800 1330 4450 17600 22400 22700
2020-03-07 02:00 12.65 25800 22700 (2018) 1330 (2017) 14800 1330 4450 17600 22400 22700
2020-03-07 01:00 12.77 26200 22700 (2018) 1330 (2017) 14800 1330 4450 17600 22400 22700
2020-03-07 00:00 12.94 26700 22700 (2018) 1330 (2017) 14800 1330 4450 17600 22400 22700
2020-03-06 23:00 13.02 26900 36900 (2019) 972 (2017) 15900 972 1640 12800 33200 36900
2020-03-06 22:00 12.92 26600 36900 (2019) 972 (2017) 15900 972 1640 12800 33200 36900
2020-03-06 21:00 12.75 26100 36900 (2019) 972 (2017) 15900 972 1640 12800 33200 36900
2020-03-06 20:00 12.83 26300 36900 (2019) 972 (2017) 15900 972 1640 12800 33200 36900
2020-03-06 19:00 12.84 26400 36900 (2019) 972 (2017) 15900 972 1640 12800 33200 36900
2020-03-06 18:00 12.71 26000 36900 (2019) 972 (2017) 15900 972 1640 12800 33200 36900
2020-03-06 17:00 12.74 26100 36900 (2019) 972 (2017) 15900 972 1640 12800 33200 36900
2020-03-06 16:00 12.80 26300 36900 (2019) 972 (2017) 15900 972 1640 12800 33200 36900
2020-03-06 15:00 12.81 26300 36900 (2019) 972 (2017) 15900 972 1640 12800 33200 36900
2020-03-06 14:00 13.05 27000 36900 (2019) 972 (2017) 15900 972 1640 12800 33200 36900
2020-03-06 13:00 13.12 27200 36900 (2019) 972 (2017) 15900 972 1640 12800 33200 36900
2020-03-06 12:00 13.17 27300 36900 (2019) 972 (2017) 15900 972 1640 12800 33200 36900
2020-03-06 11:00 13.16 27300 36900 (2019) 972 (2017) 15900 972 1640 12800 33200 36900
2020-03-06 10:00 13.06 27000 36900 (2019) 972 (2017) 15900 972 1640 12800 33200 36900
2020-03-06 09:00 12.97 26700 36900 (2019) 972 (2017) 15900 972 1640 12800 33200 36900
2020-03-06 08:00 12.77 26200 36900 (2019) 972 (2017) 15900 972 1640 12800 33200 36900
2020-03-06 07:00 12.43 25200 36900 (2019) 972 (2017) 15900 972 1640 12800 33200 36900
2020-03-06 06:00 12.24 24700 36900 (2019) 972 (2017) 15900 972 1640 12800 33200 36900
2020-03-06 05:00 12.30 24800 36900 (2019) 972 (2017) 15900 972 1640 12800 33200 36900
2020-03-06 04:00 12.56 25600 36900 (2019) 972 (2017) 15900 972 1640 12800 33200 36900
2020-03-06 03:00 13.13 27200 36900 (2019) 972 (2017) 15900 972 1640 12800 33200 36900
2020-03-06 02:00 13.76 29100 36900 (2019) 972 (2017) 15900 972 1640 12800 33200 36900
2020-03-06 01:00 14.40 31000 36900 (2019) 972 (2017) 15900 972 1640 12800 33200 36900
2020-03-06 00:00 14.86 32400 36900 (2019) 972 (2017) 15900 972 1640 12800 33200 36900
2020-03-05 23:00 14.85 32400 31200 (2019) 976 (2017) 14400 976 1650 12600 28800 31200
2020-03-05 22:00 14.79 32200 31200 (2019) 976 (2017) 14400 976 1650 12600 28800 31200
2020-03-05 21:00 14.68 31800 31200 (2019) 976 (2017) 14400 976 1650 12600 28800 31200
2020-03-05 20:00 14.63 31700 31200 (2019) 976 (2017) 14400 976 1650 12600 28800 31200
2020-03-05 19:00 14.62 31700 31200 (2019) 976 (2017) 14400 976 1650 12600 28800 31200
2020-03-05 18:00 14.64 31700 31200 (2019) 976 (2017) 14400 976 1650 12600 28800 31200
2020-03-05 17:00 14.77 32100 31200 (2019) 976 (2017) 14400 976 1650 12600 28800 31200
2020-03-05 16:00 14.85 32400 31200 (2019) 976 (2017) 14400 976 1650 12600 28800 31200
2020-03-05 15:00 14.81 32200 31200 (2019) 976 (2017) 14400 976 1650 12600 28800 31200
2020-03-05 14:00 14.71 31900 31200 (2019) 976 (2017) 14400 976 1650 12600 28800 31200
2020-03-05 13:00 14.57 31500 31200 (2019) 976 (2017) 14400 976 1650 12600 28800 31200
2020-03-05 12:00 14.55 31400 31200 (2019) 976 (2017) 14400 976 1650 12600 28800 31200
2020-03-05 11:00 14.47 31200 31200 (2019) 976 (2017) 14400 976 1650 12600 28800 31200
2020-03-05 10:00 14.29 30700 31200 (2019) 976 (2017) 14400 976 1650 12600 28800 31200
2020-03-05 09:00 14.21 30400 31200 (2019) 976 (2017) 14400 976 1650 12600 28800 31200
2020-03-05 08:00 14.17 30300 31200 (2019) 976 (2017) 14400 976 1650 12600 28800 31200
2020-03-05 07:00 13.99 29800 31200 (2019) 976 (2017) 14400 976 1650 12600 28800 31200
2020-03-05 06:00 13.84 29300 31200 (2019) 976 (2017) 14400 976 1650 12600 28800 31200
2020-03-05 05:00 13.70 28900 31200 (2019) 976 (2017) 14400 976 1650 12600 28800 31200
2020-03-05 04:00 13.62 28700 31200 (2019) 976 (2017) 14400 976 1650 12600 28800 31200
2020-03-05 03:00 13.93 29600 31200 (2019) 976 (2017) 14400 976 1650 12600 28800 31200
2020-03-05 02:00 14.59 31600 31200 (2019) 976 (2017) 14400 976 1650 12600 28800 31200
2020-03-05 01:00 15.08 33100 31200 (2019) 976 (2017) 14400 976 1650 12600 28800 31200
2020-03-05 00:00 15.07 33000 31200 (2019) 976 (2017) 14400 976 1650 12600 28800 31200

A total of 741 rows are displayed for years 2016 through 2019.